Location: Betty Hill
(18.2167°N, 63.0000°W)
Time: 06:21:07
(UTC+00:00)

Daily predictions for brighter satellites

Satellite Brightness Start Highest point End
(mag) Time Altitude Azimuth Time Altitude Azimuth Time Altitude Azimuth
ATLAS 5 CENTAUR R/B 1.0 22:38:23 10° WSW 22:41:00 78° SSE 22:48:39 10° E
Meteor 2-15 Rocket 4.5 22:35:41 10° S 22:41:41 64° E 22:47:39 10° NNE
USA 234 4.2 22:38:22 10° ENE 22:43:28 24° SE 22:48:33 10° S
Cosmos 1709 Rocket 4.2 22:38:33 10° N 22:44:26 49° E 22:50:18 10° SSE
STARLINK-1079 4.2 22:41:10 10° NW 22:45:14 59° SW 22:49:17 10° SSE
Cosmos 1943 4.0 22:40:45 10° SSW 22:46:17 60° WNW 22:51:51 10° N
Cosmos 1953 2.4 22:42:59 10° S 22:46:50 54° E 22:50:42 10° NNE
Meteor 2-10 4.4 22:42:56 10° SSE 22:47:59 47° E 22:53:15 10° NNE
TSX-5 3.9 22:45:04 10° N 22:48:33 40° ENE 22:51:35 10° SE
Cosmos 407 Rocket 3.7 22:54:20 10° S 22:59:17 49° ESE 23:04:14 10° NNE
ASTRO E2 4.1 23:01:16 10° SSW 23:04:19 21° SSE 23:06:33 14° ESE
YAOGAN 1 2.5 23:00:56 10° SSE 23:05:15 78° ENE 23:09:34 10° N
CZ-2D R/B 3.1 23:02:49 10° SSE 23:06:36 77° E 23:10:24 10° N
ISS -1.7 23:04:40 10° N 23:06:38 15° NE 23:07:59 12° ENE
CZ-2C R/B 4.1 23:11:40 10° ENE 23:13:40 14° E 23:13:40 14° E
Cosmos 1992 Rocket 4.5 23:10:01 10° N 23:14:49 38° ENE 23:19:30 11° SE
Cosmos 1437 4.4 23:15:23 10° NE 23:16:41 16° ENE 23:16:41 16° ENE
STARLINK-1121 4.3 23:13:38 10° NNW 23:17:28 36° NE 23:19:40 21° ESE
Cosmos 1626 3.8 23:14:45 10° NNW 23:18:09 36° W 23:21:34 10° SSW
Cosmos 1023 Rocket 4.4 23:15:48 10° S 23:20:55 61° ESE 23:26:00 10° NNE
Cosmos 292 Rocket 3.9 23:16:15 10° N 23:20:57 53° ENE 23:25:40 10° SSE
STARLINK-1106 4.1 23:18:32 10° NNW 23:22:26 41° NE 23:24:27 24° ESE
Cosmos 1626 Rocket 3.9 23:19:27 10° NNW 23:23:43 65° W 23:27:58 10° S
CZ-2C R/B 4.4 23:19:55 10° NE 23:23:57 30° E 23:27:55 10° SSE
Cosmos 1954 Rocket 4.5 23:19:15 10° SSE 23:24:04 36° E 23:28:50 10° NE
Cosmos 2058 Rocket 3.9 23:20:19 10° SSE 23:24:16 30° E 23:28:11 10° NNE
CZ-3A R/B 3.9 22:43:43 10° WNW 23:26:17 86° NNE 23:32:00 22° ESE
STARLINK-1112 3.9 23:23:26 10° NNW 23:27:25 47° NE 23:29:14 28° ESE
Cosmos 1726 Rocket 3.5 23:24:45 10° S 23:29:04 63° E 23:33:25 10° NNE
BREEZE-M DEB (TANK) 3.7 23:28:17 10° NNW 23:30:58 17° NNE 23:31:25 16° NE
GPS 2-04 Rocket1 4.3 23:28:49 10° W 23:32:24 32° NNW 23:36:07 10° NE
STARLINK-1128 3.7 23:28:21 10° NNW 23:32:24 55° NE 23:34:02 32° ESE
GPS 2-15 Rocket1 3.8 23:27:58 10° W 23:32:43 47° SSW 23:35:15 25° SE
Aureole 2 Rocket 2.2 23:29:31 10° NNW 23:32:48 81° WSW 23:34:59 19° S
Cosmos 2084 Rocket 3.6 23:29:55 10° NNW 23:34:23 78° WSW 23:37:54 16° SSE
USA 186 3.6 23:36:50 19° NE 23:36:50 19° NE 23:38:12 10° NNE
Cosmos 1602 Rocket 4.0 23:31:30 10° NNW 23:35:48 61° W 23:40:04 10° S
STARLINK-1113 3.6 23:33:21 10° NNW 23:37:27 64° NE 23:38:52 37° ESE
HJ-1C 3.3 23:35:12 15° S 23:37:53 89° WSW 23:41:13 10° N
ATLAS 5 CENTAUR R/B 4.1 23:35:20 10° WSW 23:38:19 20° WNW 23:41:23 10° N
MOS 1 Rocket 4.3 23:34:48 10° NE 23:39:33 31° E 23:40:08 30° ESE
GPS 2-18 Rocket1 2.9 23:37:48 10° WSW 23:41:30 69° SSE 23:42:15 51° ESE
Star 48 S/N 10026-3 4.3 23:39:25 10° WSW 23:41:40 87° SSE 23:41:51 73° E
STARLINK-1119 3.5 23:38:14 10° NNW 23:42:21 74° NE 23:43:36 43° SE
Cosmos 2228 3.4 23:38:55 10° SSW 23:43:07 64° W 23:47:23 10° N
STARLINK-1114 3.5 23:43:13 10° NW 23:47:21 85° NE 23:48:25 49° SE
H-2A R/B 2.1 23:46:24 29° SE 23:48:57 55° ENE 23:53:59 10° N
Cosmos 1825 Rocket 3.4 23:47:33 10° N 23:51:51 62° E 23:52:34 52° SE
STARLINK-1130 (DARKSAT) 3.5 23:48:08 10° NW 23:52:16 84° WSW 23:53:09 54° SSE
OAO 3 Copernicus 4.2 23:47:21 10° WNW 23:52:23 88° SSW 23:53:49 48° SE
Hubble Space Telescope 2.7 23:51:44 10° WNW 23:54:57 21° N 23:56:35 17° NNE
